| time (UTC) | temp F | wind direction | speed MPH | gust MPH | rain 1hr in | rain 24hr in | rain mn in | humidity % | barometer mb |
| 20260506094503 | 52 | 348 | 4.0 | 8.0 | 0.00 | 0.00 | 0.00 | 64 | 1010.6 |
| 20260506094433 | 52 | 337 | 4.0 | 8.0 | 0.00 | 0.00 | 0.00 | 64 | 1010.7 |
| 20260506093003 | 53 | 18 | 3.0 | 8.0 | 0.00 | 0.00 | 0.00 | 64 | 1010.9 |
| 20260506091719 | 53 | 328 | 3.0 | 8.0 | 0.00 | 0.00 | 0.00 | 61 | 1010.6 |
| 20260506091433 | 52 | 330 | 2.0 | 8.0 | 0.00 | 0.00 | 0.00 | 64 | 1010.8 |
| 20260506090004 | 51 | 358 | 3.0 | 8.0 | 0.00 | 0.00 | 0.00 | 67 | 1010.8 |
| 20260506084717 | 51 | 356 | 2.0 | 9.0 | 0.00 | 0.00 | 0.00 | 68 | 1010.5 |
| 20260506084433 | 51 | 11 | 2.0 | 11.0 | 0.00 | 0.00 | 0.00 | 69 | 1010.5 |
| 20260506083003 | 50 | 345 | 4.0 | 8.0 | 0.00 | 0.00 | 0.00 | 71 | 1010.5 |
| 20260506081718 | 49 | 23 | 3.0 | 11.0 | 0.00 | 0.00 | 0.00 | 72 | 1010.4 |
| 20260506081433 | 49 | 9 | 4.0 | 11.0 | 0.00 | 0.00 | 0.00 | 73 | 1010.7 |
| 20260506073003 | 47 | 336 | 2.0 | 9.0 | 0.00 | 0.00 | 0.00 | 77 | 1010.4 |
| 20260506071503 | 47 | 307 | 2.0 | 8.0 | 0.00 | 0.00 | 0.00 | 77 | 1010.3 |
| 20260506071433 | 47 | 315 | 2.0 | 8.0 | 0.00 | 0.00 | 0.00 | 77 | 1010.4 |
| 20260506061720 | 45 | 335 | 1.0 | 8.0 | 0.00 | 0.00 | 0.00 | 82 | 1010.2 |
| 20260506061433 | 44 | 323 | 2.0 | 8.0 | 0.00 | 0.00 | 0.00 | 83 | 1010.2 |
| 20260506044717 | 43 | 353 | 1.0 | 6.0 | 0.00 | 0.00 | 0.00 | 84 | 1010.0 |
| 20260506044433 | 43 | 11 | 1.0 | 6.0 | 0.00 | 0.00 | 0.00 | 84 | 1010.1 |
| 20260506043003 | 43 | 334 | 2.0 | 4.0 | 0.00 | 0.00 | 0.00 | 84 | 1009.9 |
| 20260506041505 | 44 | 308 | 1.0 | 4.0 | 0.00 | 0.00 | 0.00 | 83 | 1010.1 |
| 20260506041433 | 44 | 313 | 1.0 | 4.0 | 0.00 | 0.00 | 0.00 | 83 | 1010.0 |
| 20260506040003 | 44 | 338 | 1.0 | 4.0 | 0.00 | 0.00 | 0.00 | 83 | 1009.8 |
| 20260506034505 | 45 | 17 | 2.0 | 6.0 | 0.00 | 0.00 | 0.00 | 82 | 1010.0 |
| 20260506034433 | 45 | 13 | 1.0 | 6.0 | 0.00 | 0.00 | 0.00 | 82 | 1010.1 |
| 20260506033220 | 45 | 4 | 2.0 | 4.0 | 0.00 | 0.00 | 0.00 | 82 | 1010.0 |
| 20260506031503 | 46 | 347 | 1.0 | 4.0 | 0.00 | 0.00 | 0.00 | 80 | 1009.8 |
| 20260506031433 | 46 | 352 | 1.0 | 4.0 | 0.00 | 0.00 | 0.00 | 80 | 1009.9 |
| 20260506030005 | 46 | 12 | 1.0 | 4.0 | 0.00 | 0.00 | 0.00 | 79 | 1010.2 |
| 20260506024503 | 46 | 16 | 2.0 | 4.0 | 0.00 | 0.00 | 0.00 | 78 | 1010.4 |
| 20260506024433 | 46 | 24 | 1.0 | 4.0 | 0.00 | 0.00 | 0.00 | 78 | 1010.4 |
| 20260506021503 | 47 | 22 | 1.0 | 7.0 | 0.00 | 0.00 | 0.00 | 79 | 1010.2 |
| 20260506021433 | 47 | 21 | 2.0 | 7.0 | 0.00 | 0.00 | 0.00 | 79 | 1010.4 |
| 20260506020004 | 47 | 344 | 2.0 | 7.0 | 0.00 | 0.00 | 0.00 | 80 | 1010.3 |
| 20260506014505 | 47 | 16 | 0.0 | 4.0 | 0.00 | 0.00 | 0.00 | 82 | 1010.5 |
| 20260506014433 | 47 | 13 | 0.0 | 4.0 | 0.00 | 0.00 | 0.00 | 82 | 1010.5 |
| 20260506013005 | 47 | 355 | 2.0 | 4.0 | 0.00 | 0.00 | 0.00 | 82 | 1010.6 |
| 20260506011503 | 47 | 19 | 2.0 | 4.0 | 0.00 | 0.00 | 0.00 | 82 | 1010.6 |
| 20260506011433 | 47 | 20 | 2.0 | 4.0 | 0.00 | 0.00 | 0.00 | 82 | 1010.4 |
| 20260506010005 | 47 | 25 | 1.0 | 4.0 | 0.00 | 0.00 | 0.00 | 81 | 1010.4 |
| 20260506004504 | 47 | 18 | 1.0 | 6.0 | 0.00 | 0.00 | 0.00 | 82 | 1010.6 |
| 20260506004433 | 47 | 20 | 1.0 | 6.0 | 0.00 | 0.00 | 0.00 | 82 | 1010.6 |
| 20260506003005 | 47 | 38 | 1.0 | 6.0 | 0.00 | 0.00 | 0.00 | 81 | 1010.6 |
| 20260506001504 | 47 | 16 | 1.0 | 8.0 | 0.00 | 0.00 | 0.00 | 81 | 1010.8 |
| 20260506001433 | 47 | 15 | 3.0 | 8.0 | 0.00 | 0.00 | 0.00 | 81 | 1010.6 |
| 20260506000005 | 48 | 25 | 2.0 | 7.0 | 0.00 | 0.00 | 0.00 | 80 | 1010.9 |
| 20260505234505 | 48 | 37 | 2.0 | 6.0 | 0.00 | 0.00 | 0.00 | 81 | 1010.6 |
| 20260505234433 | 48 | 33 | 2.0 | 6.0 | 0.00 | 0.00 | 0.00 | 81 | 1010.7 |
| 20260505233005 | 48 | 26 | 2.0 | 4.0 | 0.00 | 0.00 | 0.00 | 81 | 1010.8 |
| 20260505231717 | 48 | 31 | 2.0 | 6.0 | 0.00 | 0.00 | 0.00 | 81 | 1010.9 |
| 20260505231433 | 48 | 26 | 1.0 | 6.0 | 0.00 | 0.00 | 0.00 | 81 | 1010.9 |
| 20260505230218 | 48 | 55 | 1.0 | 7.0 | 0.00 | 0.00 | 0.00 | 81 | 1011.1 |
| 20260505224504 | 49 | 22 | 2.0 | 6.0 | 0.00 | 0.00 | 0.00 | 80 | 1010.9 |
| 20260505224433 | 49 | 22 | 3.0 | 6.0 | 0.00 | 0.00 | 0.00 | 80 | 1010.8 |
| 20260505221505 | 49 | 40 | 2.0 | 7.0 | 0.00 | 0.00 | 0.00 | 80 | 1010.9 |
| 20260505221433 | 49 | 39 | 2.0 | 7.0 | 0.00 | 0.00 | 0.00 | 80 | 1011.1 |
| 20260505220005 | 49 | 35 | 2.0 | 7.0 | 0.00 | 0.00 | 0.00 | 79 | 1010.9 |
| 20260505214504 | 50 | 19 | 3.0 | 8.0 | 0.00 | 0.00 | 0.00 | 78 | 1010.8 |
| 20260505214433 | 50 | 20 | 3.0 | 8.0 | 0.00 | 0.00 | 0.00 | 78 | 1010.8 |
| 20260505213005 | 50 | 30 | 3.0 | 9.0 | 0.00 | 0.00 | 0.00 | 81 | 1010.8 |
| 20260505211503 | 50 | 45 | 2.0 | 4.0 | 0.00 | 0.00 | 0.00 | 84 | 1010.7 |
| 20260505211433 | 50 | 48 | 2.0 | 4.0 | 0.00 | 0.00 | 0.00 | 84 | 1010.6 |
| 20260505210005 | 50 | 46 | 2.0 | 4.0 | 0.00 | 0.00 | 0.00 | 83 | 1010.9 |
| 20260505204503 | 50 | 55 | 3.0 | 11.0 | 0.00 | 0.00 | 0.00 | 84 | 1010.5 |
| 20260505204433 | 50 | 57 | 5.0 | 11.0 | 0.00 | 0.00 | 0.00 | 84 | 1010.8 |
| 20260505203003 | 51 | 70 | 4.0 | 8.0 | 0.00 | 0.00 | 0.00 | 84 | 1010.6 |
| 20260505201503 | 52 | 52 | 4.0 | 11.0 | 0.00 | 0.00 | 0.00 | 77 | 1010.7 |
| 20260505201433 | 52 | 49 | 4.0 | 11.0 | 0.00 | 0.00 | 0.00 | 77 | 1010.6 |
| 20260505200219 | 53 | 35 | 2.0 | 6.0 | 0.00 | 0.00 | 0.00 | 74 | 1010.3 |
| 20260505194505 | 53 | 63 | 0.0 | 4.0 | 0.00 | 0.00 | 0.00 | 69 | 1010.2 |
| 20260505194433 | 53 | 61 | 0.0 | 4.0 | 0.00 | 0.00 | 0.00 | 69 | 1010.2 |
| 20260505193005 | 53 | 44 | 0.0 | 2.0 | 0.00 | 0.00 | 0.00 | 69 | 1010.0 |
| 20260505191720 | 53 | 79 | 0.0 | 2.0 | 0.00 | 0.00 | 0.00 | 68 | 1009.8 |
| 20260505191433 | 53 | 72 | 1.0 | 2.0 | 0.00 | 0.00 | 0.00 | 68 | 1009.9 |
| 20260505190218 | 53 | 67 | 0.0 | 2.0 | 0.00 | 0.00 | 0.00 | 67 | 1009.6 |
| 20260505184503 | 54 | 70 | 0.0 | 4.0 | 0.00 | 0.00 | 0.00 | 66 | 1009.5 |
| 20260505184433 | 54 | 67 | 0.0 | 4.0 | 0.00 | 0.00 | 0.00 | 66 | 1009.6 |
| 20260505183004 | 54 | 63 | 1.0 | 6.0 | 0.00 | 0.00 | 0.00 | 65 | 1009.4 |
| 20260505181719 | 54 | 71 | 2.0 | 4.0 | 0.00 | 0.00 | 0.00 | 64 | 1009.5 |
| 20260505181433 | 54 | 69 | 2.0 | 4.0 | 0.00 | 0.00 | 0.00 | 65 | 1009.5 |
| 20260505180218 | 54 | 95 | 1.0 | 2.0 | 0.00 | 0.00 | 0.00 | 65 | 1009.6 |
| 20260505174503 | 55 | 58 | 0.0 | 2.0 | 0.00 | 0.00 | 0.00 | 63 | 1009.6 |
| 20260505174433 | 55 | 58 | 0.0 | 2.0 | 0.00 | 0.00 | 0.00 | 63 | 1009.4 |
| 20260505173005 | 55 | 71 | 1.0 | 2.0 | 0.00 | 0.00 | 0.00 | 63 | 1009.3 |
| 20260505171505 | 55 | 69 | 0.0 | 4.0 | 0.00 | 0.00 | 0.00 | 61 | 1009.3 |
| 20260505171433 | 55 | 73 | 0.0 | 4.0 | 0.00 | 0.00 | 0.00 | 62 | 1009.5 |
| 20260505170005 | 55 | 81 | 2.0 | 4.0 | 0.00 | 0.00 | 0.00 | 63 | 1009.6 |
| 20260505164505 | 56 | 91 | 2.0 | 4.0 | 0.00 | 0.00 | 0.00 | 63 | 1009.5 |
| 20260505164433 | 56 | 88 | 2.0 | 4.0 | 0.00 | 0.00 | 0.00 | 63 | 1009.5 |
| 20260505163003 | 56 | 61 | 2.0 | 8.0 | 0.00 | 0.00 | 0.00 | 60 | 1009.4 |
| 20260505161718 | 56 | 71 | 2.0 | 4.0 | 0.00 | 0.00 | 0.00 | 60 | 1009.5 |
| 20260505161433 | 56 | 68 | 2.0 | 4.0 | 0.00 | 0.00 | 0.00 | 61 | 1009.4 |
| 20260505151505 | 58 | 68 | 2.0 | 8.0 | 0.00 | 0.00 | 0.00 | 55 | 1009.7 |
| 20260505151433 | 58 | 69 | 2.0 | 9.0 | 0.00 | 0.00 | 0.00 | 55 | 1009.7 |
| 20260505124505 | 60 | 55 | 2.0 | 6.0 | 0.00 | 0.00 | 0.00 | 52 | 1010.0 |
| 20260505124433 | 60 | 58 | 2.0 | 6.0 | 0.00 | 0.00 | 0.00 | 52 | 1010.0 |
| 20260505123005 | 61 | 37 | 3.0 | 6.0 | 0.00 | 0.00 | 0.00 | 53 | 1010.0 |
| 20260505121503 | 62 | 76 | 2.0 | 11.0 | 0.00 | 0.00 | 0.00 | 48 | 1009.9 |
| 20260505121433 | 62 | 72 | 3.0 | 11.0 | 0.00 | 0.00 | 0.00 | 48 | 1009.9 |
| 20260505120005 | 62 | 42 | 2.0 | 4.0 | 0.00 | 0.00 | 0.00 | 52 | 1009.9 |
| 20260505114504 | 60 | 19 | 2.0 | 7.0 | 0.00 | 0.00 | 0.00 | 56 | 1010.1 |
| 20260505114433 | 60 | 24 | 3.0 | 7.0 | 0.00 | 0.00 | 0.00 | 54 | 1010.0 |
| 20260505113005 | 59 | 38 | 2.0 | 4.0 | 0.00 | 0.00 | 0.00 | 56 | 1009.9 |
| 20260505111719 | 59 | 54 | 3.0 | 8.0 | 0.00 | 0.00 | 0.00 | 57 | 1010.2 |
| 20260505111433 | 58 | 63 | 1.0 | 11.0 | 0.00 | 0.00 | 0.00 | 57 | 1010.4 |
| 20260505110220 | 60 | 39 | 2.0 | 8.0 | 0.00 | 0.00 | 0.00 | 54 | 1010.4 |
| 20260505101503 | 59 | 22 | 4.0 | 7.0 | 0.00 | 0.00 | 0.00 | 56 | 1010.9 |
| 20260505101433 | 59 | 24 | 2.0 | 6.0 | 0.00 | 0.00 | 0.00 | 58 | 1010.6 |
| 20260505100003 | 57 | 25 | 3.0 | 7.0 | 0.00 | 0.00 | 0.00 | 61 | 1010.8 |